YNWN

Details ICAO YNWN (ZNE)
Name Newman
Region Australia
Timezone Australia/Perth (UTC+8.0)
Plans Departing 8
Arriving 8
Stats Elevation 1,724 ft / 525 m (AMSL)
Location -23.418503° 119.803036°
Runways 1
Magnetic Variation 1.252° E
Sunrise 2018-06-24 22:43:43 UTC / 2018-06-25 06:43:43 Local
Sunset 2018-06-25 09:25:21 UTC / 2018-06-25 17:25:21 Local
Advertisement - Login to hide

Runways

ID Width Length Bearing (true) Bearing (mag) Surface Threshold Offset Overrun Length
05 98 ft / 30 m 6,803 ft / 2,074 m 55.67° 54.42° Asphalt 0 ft / 0 m 0 ft / 0 m
23 98 ft / 30 m 6,803 ft / 2,074 m 235.66° 234.41° Asphalt 0 ft / 0 m 0 ft / 0 m

Map

Weather


0- 5 10 15 20 25 30 35+ Temperature / ° C

Clouds and Precipitation
Forecast for 2018-06-25 12:00 UTC. Updated 38 minutes ago

Ground ~20,000 ft ~40,000 ft Winds

METAR

YNWN 250900Z AUTO 09009KT 9999 // NCD 19/M01 Q1022

TAF

Not found

Frequencies

Unicom 119.60 MHz ACTIVATE LIGHTS ONLY MULT
Unicom 126.70 MHz NEWMAN MULT
Unicom 123.40 MHz MELBOURNE CENTRE MULT
Warning: Do not use this data for real-world aviation or navigation. No guarantee of current accuracy is given.